DW6610 Weather Reports


time (UTC)temp
C
wind
direction
speed
KPH
gust
KPH
rain 1hr
cm
rain 24hr
cm
rain mn
cm
humidity
%
barometer
mb
20260505000551 24 70 4.8 19.3 0.00 0.00 0.00 46 1010.2
20260504235554 25 146 8.0 19.3 0.00 0.00 0.00 45 1010.2
20260504235051 25 55 4.8 17.7 0.00 0.00 0.00 44 1010.3
20260504234554 25 99 6.4 17.7 0.00 0.00 0.00 44 1010.2
20260504234051 26 48 4.8 19.3 0.00 0.00 0.00 43 1010.3
20260504233553 26 307 6.4 24.1 0.00 0.00 0.00 42 1010.2
20260504233055 26 123 8.0 24.1 0.00 0.00 0.00 42 1010.4
20260504232553 26 117 9.7 20.9 0.00 0.00 0.00 42 1010.3
20260504232051 26 328 6.4 19.3 0.00 0.00 0.00 42 1010.3
20260504231557 26 60 4.8 24.1 0.00 0.00 0.00 42 1010.3
20260504231051 26 21 8.0 24.1 0.00 0.00 0.00 42 1010.2
20260504230555 26 81 6.4 19.3 0.00 0.00 0.00 42 1010.3
20260504230111 26 280 8.0 19.3 0.00 0.00 0.00 40 1010.4
20260504225553 27 39 6.4 17.7 0.00 0.00 0.00 40 1010.3
20260504225054 27 91 4.8 17.7 0.00 0.00 0.00 42 1010.3
20260504224612 27 328 6.4 20.9 0.00 0.00 0.00 40 1010.5
20260504224052 27 285 4.8 20.9 0.00 0.00 0.00 40 1010.5
20260504223551 27 46 8.0 19.3 0.00 0.00 0.00 39 1010.4
20260504223103 27 28 9.7 22.5 0.00 0.00 0.00 39 1010.4
20260504222550 27 282 8.0 25.7 0.00 0.00 0.00 39 1010.5
20260504222050 27 316 9.7 25.7 0.00 0.00 0.00 40 1010.5
20260504221555 27 37 8.0 27.4 0.00 0.00 0.00 40 1010.5
20260504221050 27 323 11.3 27.4 0.00 0.00 0.00 40 1010.6
20260504220552 27 69 9.7 27.4 0.00 0.00 0.00 39 1010.4
20260504220059 27 26 8.0 24.1 0.00 0.00 0.00 40 1010.5
20260504215553 27 10 9.7 24.1 0.00 0.00 0.00 39 1010.6
20260504215054 27 68 8.0 24.1 0.00 0.00 0.00 40 1010.4
20260504214557 27 9 6.4 20.9 0.00 0.00 0.00 40 1010.6
20260504214053 27 77 8.0 20.9 0.00 0.00 0.00 40 1010.5
20260504213551 27 41 9.7 24.1 0.00 0.00 0.00 39 1010.4
20260504213101 27 338 9.7 24.1 0.00 0.00 0.00 40 1010.5
20260504212550 27 88 6.4 29.0 0.00 0.00 0.00 39 1010.6
20260504212052 27 80 6.4 29.0 0.00 0.00 0.00 39 1010.5
20260504211600 27 240 9.7 29.0 0.00 0.00 0.00 38 1010.6
20260504211053 27 346 9.7 20.9 0.00 0.00 0.00 39 1010.7
20260504210552 27 81 8.0 24.1 0.00 0.00 0.00 39 1010.8
20260504205551 27 120 8.0 19.3 0.00 0.00 0.00 40 1010.8
20260504205052 27 311 6.4 19.3 0.00 0.00 0.00 40 1010.7
20260504204556 27 357 8.0 24.1 0.00 0.00 0.00 40 1010.9
20260504204048 27 41 8.0 33.8 0.00 0.00 0.00 40 1010.9
20260504203552 27 345 11.3 33.8 0.00 0.00 0.00 39 1011.1
20260504203059 27 20 9.7 20.9 0.00 0.00 0.00 38 1011.2
20260504202552 27 43 8.0 22.5 0.00 0.00 0.00 42 1011.1
20260504202055 27 347 6.4 22.5 0.00 0.00 0.00 42 1011.2
20260504201552 27 301 8.0 20.9 0.00 0.00 0.00 40 1011.3
20260504201052 27 27 8.0 24.1 0.00 0.00 0.00 40 1011.2
20260504200552 27 352 11.3 24.1 0.00 0.00 0.00 40 1011.6
20260504195551 27 50 6.4 20.9 0.00 0.00 0.00 40 1011.6
20260504195052 27 68 8.0 22.5 0.00 0.00 0.00 41 1011.6
20260504194552 27 275 9.7 22.5 0.00 0.00 0.00 41 1011.6
20260504194053 27 89 8.0 19.3 0.00 0.00 0.00 41 1011.8
20260504193552 27 340 6.4 20.9 0.00 0.00 0.00 42 1012.0
20260504193052 27 298 9.7 20.9 0.00 0.00 0.00 41 1012.1
20260504192552 27 71 8.0 19.3 0.00 0.00 0.00 43 1012.2
20260504192052 27 346 6.4 24.1 0.00 0.00 0.00 44 1012.3
20260504191606 27 324 9.7 24.1 0.00 0.00 0.00 41 1012.3
20260504191052 27 88 9.7 32.2 0.00 0.00 0.00 42 1012.3
20260504190554 27 78 9.7 32.2 0.00 0.00 0.00 41 1012.4
20260504190051 27 85 9.7 32.2 0.00 0.00 0.00 40 1012.6
20260504185552 27 55 8.0 27.4 0.00 0.00 0.00 41 1012.5
20260504185052 27 76 9.7 19.3 0.00 0.00 0.00 42 1012.6
20260504184555 27 338 8.0 17.7 0.00 0.00 0.00 41 1012.6
20260504184052 27 98 4.8 20.9 0.00 0.00 0.00 44 1012.6
20260504183552 27 83 6.4 22.5 0.00 0.00 0.00 43 1012.6
20260504183054 27 48 9.7 22.5 0.00 0.00 0.00 43 1012.8
20260504182552 27 286 11.3 22.5 0.00 0.00 0.00 41 1012.8
20260504182051 27 323 8.0 22.5 0.00 0.00 0.00 45 1012.8
20260504181602 27 109 11.3 25.7 0.00 0.00 0.00 42 1012.8
20260504181052 27 64 8.0 25.7 0.00 0.00 0.00 42 1012.9
20260504180553 27 77 9.7 20.9 0.00 0.00 0.00 44 1013.0
20260504180058 27 76 6.4 22.5 0.00 0.00 0.00 45 1012.9
20260504175551 27 92 4.8 22.5 0.00 0.00 0.00 47 1012.9
20260504175051 27 85 8.0 20.9 0.00 0.00 0.00 45 1013.1
20260504174556 27 332 4.8 20.9 0.00 0.00 0.00 45 1013.1
20260504174051 27 313 6.4 20.9 0.00 0.00 0.00 45 1013.2
20260504173552 26 26 9.7 19.3 0.00 0.00 0.00 44 1013.3
20260504173055 26 27 8.0 17.7 0.00 0.00 0.00 44 1013.4
20260504172552 26 41 9.7 27.4 0.00 0.00 0.00 46 1013.5
20260504172049 26 57 9.7 27.4 0.00 0.00 0.00 45 1013.6
20260504171557 27 308 6.4 12.9 0.00 0.00 0.00 44 1013.6
20260504171052 27 331 4.8 12.9 0.00 0.00 0.00 48 1013.6
20260504170552 26 34 3.2 22.5 0.00 0.00 0.00 49 1013.8
20260504160104 25 32 8.0 19.3 0.00 0.00 0.00 49 1014.8
20260504151048 23 99 4.8 14.5 0.00 0.00 0.00 56 1014.8
20260504150552 23 302 4.8 22.5 0.00 0.00 0.00 59 1014.9
20260504141050 22 97 4.8 11.3 0.00 0.00 0.00 62 1015.3
20260504140548 21 115 3.2 11.3 0.00 0.00 0.00 64 1015.1
20260504130550 18 94 1.6 6.4 0.00 0.00 0.00 74 1015.0
20260504120135 14 13 1.6 6.4 0.00 0.00 0.00 81 1014.5
20260504110551 14 82 0.0 3.2 0.00 0.00 0.00 79 1014.0
20260504100551 15 326 1.6 6.4 0.00 0.00 0.00 75 1014.2
20260504081604 15 330 3.2 8.0 0.00 0.00 0.00 71 1014.5
20260504081052 15 52 1.6 8.0 0.00 0.00 0.00 72 1014.6
20260504080551 15 355 3.2 8.0 0.00 0.00 0.00 71 1014.6
20260504050551 14 0 0.0 6.4 0.00 0.00 0.00 70 1016.2
20260504050106 14 37 1.6 6.4 0.00 0.00 0.00 70 1016.0
20260504045553 14 75 1.6 9.7 0.00 0.00 0.00 70 1016.1
20260504045048 14 72 0.0 9.7 0.00 0.00 0.00 70 1016.2
20260504044554 14 16 1.6 4.8 0.00 0.00 0.00 70 1016.1
20260504044048 14 42 1.6 4.8 0.00 0.00 0.00 70 1016.2
20260504043549 14 79 1.6 3.2 0.00 0.00 0.00 70 1016.2
20260504043112 14 94 0.0 3.2 0.00 0.00 0.00 70 1016.2
20260504042553 14 53 0.0 4.8 0.00 0.00 0.00 69 1016.2
20260504042052 14 44 0.0 4.8 0.00 0.00 0.00 69 1016.1
20260504041555 14 53 0.0 4.8 0.00 0.00 0.00 69 1016.2
20260504041051 14 63 0.0 4.8 0.00 0.00 0.00 68 1016.1
20260504040555 14 81 0.0 4.8 0.00 0.00 0.00 68 1016.1
20260504035555 14 44 1.6 4.8 0.00 0.00 0.00 68 1016.3
20260504035051 14 75 0.0 3.2 0.00 0.00 0.00 68 1016.3
20260504034556 14 0 0.0 3.2 0.00 0.00 0.00 68 1016.3
20260504034051 14 62 0.0 3.2 0.00 0.00 0.00 68 1016.4
20260504033548 15 65 0.0 3.2 0.00 0.00 0.00 68 1016.4
20260504033104 15 65 0.0 1.6 0.00 0.00 0.00 68 1016.5
20260504032548 15 0 0.0 3.2 0.00 0.00 0.00 67 1016.5
20260504032048 15 66 0.0 3.2 0.00 0.00 0.00 67 1016.6
20260504031558 15 0 0.0 3.2 0.00 0.00 0.00 66 1016.6
20260504031050 15 0 0.0 1.6 0.00 0.00 0.00 66 1016.6
20260504030548 15 64 0.0 3.2 0.00 0.00 0.00 66 1016.7
20260504030104 15 64 0.0 3.2 0.00 0.00 0.00 65 1016.7
20260504025551 15 0 0.0 1.6 0.00 0.00 0.00 64 1016.7
20260504025049 15 0 0.0 3.2 0.00 0.00 0.00 64 1016.6
20260504024553 15 58 0.0 3.2 0.00 0.00 0.00 63 1016.7
20260504024048 15 51 0.0 3.2 0.00 0.00 0.00 63 1016.5
20260504023548 15 0 0.0 3.2 0.00 0.00 0.00 63 1016.5
20260504023054 16 0 0.0 4.8 0.00 0.00 0.00 62 1016.5
20260504022552 16 0 0.0 4.8 0.00 0.00 0.00 62 1016.5
20260504022052 16 0 0.0 4.8 0.00 0.00 0.00 61 1016.5
20260504021556 16 70 0.0 3.2 0.00 0.00 0.00 61 1016.4
20260504021051 16 82 0.0 3.2 0.00 0.00 0.00 61 1016.4
20260504020554 16 74 0.0 3.2 0.00 0.00 0.00 61 1016.2
20260504020105 16 0 0.0 3.2 0.00 0.00 0.00 61 1016.4
20260504015549 16 0 0.0 1.6 0.00 0.00 0.00 60 1016.3
20260504015052 16 0 0.0 1.6 0.00 0.00 0.00 59 1016.2
20260504014605 16 61 0.0 1.6 0.00 0.00 0.00 59 1016.2
20260504014051 16 62 0.0 1.6 0.00 0.00 0.00 58 1016.1
20260504013554 16 62 0.0 1.6 0.00 0.00 0.00 57 1016.1
20260504013059 17 0 0.0 1.6 0.00 0.00 0.00 57 1016.0
20260504012550 17 0 0.0 1.6 0.00 0.00 0.00 56 1016.0
20260504012048 17 0 0.0 1.6 0.00 0.00 0.00 55 1016.1
20260504011554 17 61 0.0 1.6 0.00 0.00 0.00 54 1016.1
20260504011048 17 0 0.0 1.6 0.00 0.00 0.00 53 1016.0
20260504010548 18 0 0.0 1.6 0.00 0.00 0.00 52 1016.0
20260504010100 18 0 0.0 1.6 0.00 0.00 0.00 51 1016.0
20260504005549 18 60 0.0 1.6 0.00 0.00 0.00 50 1016.0
20260504005050 19 60 0.0 1.6 0.00 0.00 0.00 49 1016.1
20260504004554 19 0 0.0 1.6 0.00 0.00 0.00 48 1016.1
20260504004051 20 0 0.0 1.6 0.00 0.00 0.00 47 1016.1
20260504003551 20 60 0.0 4.8 0.00 0.00 0.00 45 1016.1
20260504003058 20 59 0.0 4.8 0.00 0.00 0.00 45 1016.1
20260504002551 21 64 1.6 4.8 0.00 0.00 0.00 44 1016.1
20260504002051 21 50 1.6 4.8 0.00 0.00 0.00 43 1016.1
20260504001601 21 75 1.6 8.0 0.00 0.00 0.00 42 1016.0
20260504001049 21 64 1.6 8.0 0.00 0.00 0.00 41 1016.0